FW6045 Weather Reports


time (UTC)temp
F
wind
direction
speed
knots
gust
knots
rain 1hr
in
rain 24hr
in
rain mn
in
humidity
%
barometer
mb
20260503213100 62 190 8.7 19.1 0.00 0.00 0.00 39 1014.5
20260503211610 61 203 10.4 18.2 0.00 0.00 0.00 39 1014.3
20260503210059 61 224 9.6 20.0 0.00 0.00 0.00 41 1014.2
20260503204602 61 223 9.6 18.2 0.00 0.00 0.00 41 1014.5
20260503203100 61 227 8.7 20.0 0.00 0.00 0.00 42 1014.5
20260503201557 60 239 13.0 21.7 0.00 0.00 0.00 39 1014.6
20260503200056 60 196 12.2 20.0 0.00 0.00 0.00 40 1014.9
20260503194557 61 235 7.0 19.1 0.00 0.00 0.00 41 1015.1
20260503193115 60 177 10.4 20.9 0.00 0.00 0.00 39 1015.5
20260503191600 60 263 7.8 22.6 0.00 0.00 0.00 40 1016.0
20260503190058 59 208 8.7 17.4 0.00 0.00 0.00 39 1016.0
20260503184559 59 217 9.6 19.1 0.00 0.00 0.00 42 1016.3
20260503183105 59 209 11.3 22.6 0.00 0.00 0.00 42 1016.5
20260503181622 58 238 10.4 20.0 0.00 0.00 0.00 40 1016.6
20260503180134 58 176 7.0 17.4 0.00 0.00 0.00 41 1016.8
20260503174559 58 182 8.7 16.5 0.00 0.00 0.00 43 1016.9
20260503173102 57 242 7.0 19.1 0.00 0.00 0.00 43 1017.4
20260503171558 57 210 11.3 17.4 0.00 0.00 0.00 45 1017.5
20260503170104 56 243 8.7 18.2 0.00 0.00 0.00 42 1017.9
20260503150105 52 229 7.0 13.9 0.00 0.00 0.00 53 1019.2
20260503120109 37 229 3.5 6.1 0.00 0.00 0.00 82 1019.1
20260503100125 35 225 2.6 4.3 0.00 0.00 0.00 89 1018.1
20260503081600 37 238 2.6 4.3 0.00 0.00 0.00 88 1018.0
20260503071606 38 248 4.3 6.1 0.00 0.00 0.00 87 1017.7
20260503070109 38 250 3.5 6.1 0.00 0.00 0.00 87 1017.8
20260503060116 40 236 3.5 5.2 0.00 0.00 0.00 78 1018.1
20260503054558 41 242 2.6 4.3 0.00 0.00 0.00 73 1018.2
20260503053058 41 241 2.6 4.3 0.00 0.00 0.00 74 1018.2
20260503051556 42 241 3.5 4.3 0.00 0.00 0.00 67 1018.1
20260503050057 43 5 1.7 3.5 0.00 0.00 0.00 60 1018.0
20260503044625 44 0 0.0 0.0 0.00 0.00 0.00 59 1018.1
20260503043058 45 0 0.0 2.6 0.00 0.00 0.00 57 1018.3
20260503041600 45 9 1.7 3.5 0.00 0.00 0.00 56 1018.2
20260503040107 45 9 2.6 3.5 0.00 0.00 0.00 56 1018.2
20260503034602 45 5 2.6 4.3 0.00 0.00 0.00 57 1018.3
20260503033057 45 360 2.6 4.3 0.00 0.00 0.00 57 1018.2
20260503031557 45 5 3.5 5.2 0.00 0.00 0.00 56 1018.2
20260503030106 45 5 3.5 5.2 0.00 0.00 0.00 56 1018.1
20260503024603 45 355 3.5 4.3 0.00 0.00 0.00 57 1018.2
20260503023101 45 5 2.6 5.2 0.00 0.00 0.00 57 1018.0
20260503021558 46 355 3.5 6.1 0.00 0.00 0.00 56 1017.8
20260503020114 46 5 3.5 7.0 0.00 0.00 0.00 56 1017.6
20260503014620 46 352 4.3 7.0 0.00 0.00 0.00 55 1017.1
20260503013118 47 355 4.3 8.7 0.00 0.00 0.00 54 1017.0
20260503011609 47 347 4.3 7.8 0.00 0.00 0.00 53 1016.9
20260503010105 48 346 4.3 9.6 0.00 0.00 0.00 52 1016.7
20260503004613 48 345 6.1 10.4 0.00 0.00 0.00 52 1016.6
20260503003106 49 355 4.3 11.3 0.00 0.00 0.00 51 1016.6
20260503001600 50 348 4.3 11.3 0.00 0.00 0.00 50 1016.3
20260503000106 51 296 3.5 11.3 0.00 0.00 0.00 47 1016.2
20260502234619 51 325 4.3 13.0 0.00 0.00 0.00 47 1016.0
20260502233058 51 338 7.8 15.6 0.00 0.00 0.00 46 1015.9
20260502231556 51 348 8.7 13.9 0.00 0.00 0.00 45 1015.9
20260502230058 52 315 5.2 14.8 0.00 0.00 0.00 45 1016.0
20260502224603 53 351 7.0 14.8 0.00 0.00 0.00 45 1015.8
20260502223105 53 336 5.2 13.0 0.00 0.00 0.00 46 1015.8
20260502221603 52 291 6.1 12.2 0.00 0.00 0.00 46 1015.8
20260502214617 53 317 5.2 17.4 0.00 0.00 0.00 45 1015.6